W2PJ Weather Reports


Display with metric or nautical units.
time (UTC)temp
F
wind
direction
speed
MPH
gust
MPH
rain 1hr
in
rain 24hr
in
rain mn
in
humidity
%
barometer
mb
20260502163111 42 188 0.0 3.0 0.00 0.18 0.01 61 1013.6
20260502162558 42 285 0.0 4.0 0.00 0.18 0.01 61 1013.7
20260502162059 42 293 0.0 6.0 0.00 0.18 0.01 60 1013.8
20260502161600 43 325 0.0 10.0 0.00 0.18 0.01 62 1013.7
20260502161056 43 310 0.0 10.0 0.00 0.18 0.01 62 1013.6
20260502160556 42 264 0.0 6.0 0.00 0.18 0.01 62 1013.6
20260502152052 42 286 0.0 1.0 0.00 0.18 0.01 73 1013.9
20260502151551 41 282 0.0 1.0 0.00 0.18 0.01 71 1014.0
20260502151049 41 266 0.0 9.0 0.00 0.18 0.01 72 1014.0
20260502150549 41 293 1.0 9.0 0.00 0.18 0.01 70 1014.0
20260502130533 37 246 0.0 5.0 0.00 0.18 0.01 88 1014.4
20260502123531 36 242 0.0 0.0 0.00 0.18 0.01 92 1014.5
20260502123031 36 275 0.0 1.0 0.00 0.18 0.01 92 1014.6
20260502122529 36 255 0.0 0.0 0.00 0.18 0.01 93 1014.5
20260502122030 36 266 0.0 0.0 0.00 0.18 0.01 93 1014.4
20260502121529 36 279 0.0 1.0 0.00 0.18 0.01 93 1014.4
20260502121029 36 271 0.0 1.0 0.00 0.18 0.01 93 1014.4
20260502120529 36 266 0.0 0.0 0.00 0.18 0.01 93 1014.4
20260502115529 36 337 0.0 1.0 0.00 0.18 0.01 93 1014.4
20260502115028 36 282 0.0 1.0 0.00 0.18 0.01 93 1014.4
20260502114526 36 304 0.0 0.0 0.00 0.18 0.01 94 1014.4
20260502114026 37 157 0.0 0.0 0.00 0.18 0.01 94 1014.3
20260502113528 37 280 0.0 0.0 0.00 0.18 0.01 93 1014.2
20260502113026 37 269 0.0 0.0 0.00 0.18 0.01 93 1014.2
20260502112523 37 275 0.0 0.0 0.00 0.18 0.01 93 1014.1
20260502112023 37 273 0.0 0.0 0.00 0.18 0.01 93 1013.9
20260502111522 37 265 0.0 0.0 0.00 0.18 0.01 93 1013.8
20260502111022 37 259 0.0 1.0 0.00 0.18 0.01 93 1013.7
20260502110521 37 269 0.0 0.0 0.00 0.18 0.01 93 1013.6
20260502110020 37 271 0.0 0.0 0.00 0.18 0.01 93 1013.7
20260502105520 37 255 0.0 0.0 0.00 0.18 0.01 93 1013.6
20260502105019 37 268 0.0 0.0 0.00 0.18 0.01 93 1013.5
20260502104519 37 262 0.0 0.0 0.00 0.18 0.01 93 1013.5
20260502104019 37 294 0.0 0.0 0.00 0.18 0.01 93 1013.5
20260502103520 37 299 0.0 0.0 0.00 0.18 0.01 93 1013.4
20260502103019 37 259 0.0 0.0 0.00 0.18 0.01 93 1013.5
20260502102519 37 261 0.0 1.0 0.00 0.18 0.01 93 1013.5
20260502102017 37 254 0.0 1.0 0.00 0.18 0.01 93 1013.5
20260502101517 37 257 0.0 0.0 0.00 0.18 0.01 93 1013.4
20260502101015 37 299 0.0 0.0 0.00 0.18 0.01 93 1013.3
20260502100514 37 261 0.0 0.0 0.00 0.18 0.01 93 1013.2
20260502091509 38 240 0.0 0.0 0.00 0.18 0.01 93 1012.8
20260502091010 38 251 0.0 0.0 0.00 0.18 0.01 93 1012.7
20260502090509 38 228 0.0 0.0 0.00 0.18 0.01 93 1012.7
20260502071501 37 140 0.0 0.0 0.00 0.18 0.01 93 1012.5
20260502071002 37 147 0.0 0.0 0.00 0.18 0.01 93 1012.7
20260502070502 36 166 0.0 0.0 0.00 0.18 0.01 93 1012.7
20260502065601 36 214 0.0 0.0 0.00 0.18 0.01 93 1012.4
20260502065100 36 237 0.0 0.0 0.00 0.18 0.01 93 1012.4
20260502064600 36 237 0.0 0.0 0.00 0.18 0.01 93 1012.3
20260502064059 36 169 0.0 0.0 0.00 0.18 0.01 93 1012.3
20260502063602 37 169 0.0 0.0 0.00 0.18 0.01 93 1012.4
20260502063059 37 172 0.0 0.0 0.00 0.18 0.01 93 1012.3
20260502062558 37 162 0.0 0.0 0.00 0.18 0.01 93 1012.0
20260502062056 37 162 0.0 0.0 0.00 0.18 0.01 93 1012.2
20260502061555 37 163 0.0 0.0 0.00 0.18 0.01 93 1012.4
20260502061054 37 162 0.0 0.0 0.00 0.18 0.01 93 1012.3
20260502060554 37 162 0.0 0.0 0.00 0.18 0.01 93 1012.4
20260502060100 37 163 0.0 0.0 0.00 0.18 0.01 93 1012.4
20260502055556 37 163 0.0 0.0 0.00 0.18 0.01 93 1012.5
20260502055053 37 163 0.0 0.0 0.00 0.18 0.01 93 1012.5
20260502054556 37 162 0.0 0.0 0.00 0.18 0.01 93 1012.6
20260502054051 37 175 0.0 0.0 0.00 0.18 0.01 93 1012.7
20260502053551 37 165 0.0 0.0 0.00 0.18 0.01 93 1012.9
20260502053051 37 183 0.0 0.0 0.00 0.18 0.01 93 1012.9
20260502052555 37 234 0.0 0.0 0.00 0.18 0.01 93 1013.0
20260502052054 37 151 0.0 0.0 0.00 0.18 0.01 93 1012.9
20260502051549 37 159 0.0 0.0 0.01 0.18 0.01 93 1012.9
20260502051049 37 209 0.0 0.0 0.01 0.18 0.01 93 1012.9
20260502050549 37 183 0.0 0.0 0.01 0.18 0.01 93 1012.9
20260502050047 37 238 0.0 0.0 0.01 0.18 0.01 93 1012.9
20260502045550 37 238 0.0 0.0 0.01 0.18 0.01 93 1012.8
20260502045047 37 266 0.0 0.0 0.01 0.18 0.01 93 1012.8
20260502044552 37 266 0.0 0.0 0.01 0.18 0.01 93 1012.8
20260502044046 37 273 0.0 0.0 0.01 0.18 0.01 93 1012.8
20260502043546 37 289 0.0 0.0 0.01 0.18 0.01 93 1012.8
20260502043052 37 292 0.0 0.0 0.01 0.18 0.01 93 1012.9
20260502042545 37 299 0.0 0.0 0.01 0.18 0.01 93 1012.8
20260502042045 37 5 0.0 0.0 0.02 0.18 0.01 93 1012.8
20260502041548 37 6 0.0 0.0 0.01 0.17 0.00 93 1012.8
20260502041043 37 5 0.0 0.0 0.01 0.17 0.00 93 1012.8
20260502040543 37 5 0.0 0.0 0.01 0.17 0.00 93 1012.7
20260502040042 37 5 0.0 0.0 0.02 0.17 0.00 93 1012.7
20260502035544 37 5 0.0 0.0 0.02 0.17 0.17 93 1012.7
20260502035042 37 5 0.0 0.0 0.02 0.17 0.17 93 1012.7
20260502034542 37 357 0.0 0.0 0.03 0.17 0.17 93 1012.7
20260502034042 37 357 0.0 0.0 0.03 0.17 0.17 93 1012.7
20260502033541 37 325 0.0 0.0 0.03 0.17 0.17 93 1012.6
20260502033045 37 307 0.0 0.0 0.04 0.17 0.17 93 1012.6
20260502032544 37 9 0.0 0.0 0.04 0.17 0.17 93 1012.6
20260502032041 37 319 0.0 0.0 0.03 0.16 0.16 93 1012.7
20260502031541 37 324 0.0 0.0 0.04 0.16 0.16 93 1012.6
20260502031043 37 3 0.0 0.0 0.04 0.16 0.16 93 1012.6
20260502030541 37 5 0.0 0.0 0.04 0.16 0.16 93 1012.6
20260502030041 37 358 0.0 0.0 0.04 0.15 0.15 93 1012.6
20260502025540 37 354 0.0 0.0 0.04 0.15 0.15 93 1012.7
20260502025039 37 3 0.0 0.0 0.04 0.15 0.15 93 1012.6
20260502024541 37 347 0.0 0.0 0.03 0.14 0.14 93 1012.6
20260502024040 37 72 0.0 0.0 0.04 0.14 0.14 93 1012.6
20260502023543 37 356 0.0 0.0 0.04 0.14 0.14 93 1012.6
20260502023040 37 349 0.0 0.0 0.03 0.13 0.13 93 1012.7
20260502022540 38 1 0.0 0.0 0.03 0.13 0.13 93 1012.6
20260502022041 38 341 0.0 0.0 0.04 0.13 0.13 93 1012.6
20260502021540 38 337 0.0 0.0 0.03 0.12 0.12 93 1012.6
20260502021040 38 330 0.0 0.0 0.04 0.12 0.12 93 1012.5
20260502020537 38 334 0.0 0.0 0.04 0.12 0.12 93 1012.5
20260502020042 38 7 0.0 0.0 0.04 0.11 0.11 93 1012.5
20260502015537 38 32 0.0 0.0 0.04 0.11 0.11 93 1012.5
20260502015039 38 3 0.0 0.0 0.05 0.11 0.11 93 1012.5
20260502014551 38 337 0.0 0.0 0.05 0.11 0.11 93 1012.6
20260502014036 38 22 0.0 0.0 0.05 0.10 0.10 93 1012.5
20260502013536 38 354 0.0 0.0 0.05 0.10 0.10 93 1012.5
20260502013036 38 42 0.0 0.0 0.06 0.10 0.10 93 1012.5
20260502012536 38 21 0.0 0.0 0.07 0.10 0.10 93 1012.4
20260502012036 39 13 0.0 0.0 0.06 0.09 0.09 93 1012.4
20260502011544 39 355 0.0 0.0 0.06 0.09 0.09 93 1012.3
20260502011036 39 97 0.0 0.0 0.06 0.08 0.08 93 1012.2
20260502010535 39 342 0.0 0.0 0.06 0.08 0.08 93 1012.2
20260502010035 39 15 0.0 0.0 0.06 0.07 0.07 93 1012.2
20260502005535 39 357 0.0 0.0 0.06 0.07 0.07 93 1012.2
20260502005035 39 303 0.0 0.0 0.05 0.06 0.06 93 1012.2
20260502004535 40 317 0.0 0.0 0.05 0.06 0.06 93 1012.1
20260502004034 40 321 0.0 0.0 0.04 0.05 0.05 92 1012.1
20260502003536 40 303 0.0 0.0 0.04 0.05 0.05 92 1012.0
20260502003034 40 310 0.0 0.0 0.03 0.04 0.04 92 1012.0
20260502002537 41 285 0.0 0.0 0.03 0.03 0.03 92 1011.9
20260502002035 41 328 0.0 0.0 0.03 0.03 0.03 92 1011.8
20260502001533 41 307 0.0 0.0 0.03 0.03 0.03 92 1011.7
20260502001033 41 279 0.0 0.0 0.02 0.02 0.02 92 1011.7
20260502000532 41 293 0.0 0.0 0.02 0.02 0.02 92 1011.7
20260502000046 40 345 0.0 0.0 0.01 0.01 0.01 92 1011.6
20260501235532 40 349 0.0 0.0 0.01 0.01 0.01 91 1011.6
20260501235032 41 349 0.0 0.0 0.01 0.01 0.01 91 1011.6
20260501234532 41 337 0.0 0.0 0.01 0.01 0.01 91 1011.5
20260501234032 41 337 0.0 0.0 0.01 0.01 0.01 90 1011.5
20260501233534 41 22 0.0 0.0 0.01 0.01 0.01 90 1011.4
20260501233032 41 15 0.0 0.0 0.01 0.01 0.01 89 1011.4
20260501232531 42 351 0.0 0.0 0.00 0.00 0.00 88 1011.4
20260501232031 42 48 0.0 0.0 0.00 0.00 0.00 88 1011.4
20260501231530 43 31 0.0 0.0 0.00 0.00 0.00 86 1011.3
20260501231030 44 317 0.0 0.0 0.00 0.00 0.00 85 1011.3
20260501230532 44 39 0.0 0.0 0.00 0.00 0.00 83 1011.3
20260501230030 44 320 0.0 0.0 0.00 0.00 0.00 81 1011.3
20260501225530 45 317 0.0 0.0 0.00 0.00 0.00 79 1011.3
20260501225029 45 320 0.0 0.0 0.00 0.00 0.00 76 1011.2
20260501224528 46 272 0.0 0.0 0.00 0.00 0.00 74 1011.2
20260501224028 46 283 0.0 0.0 0.00 0.00 0.00 72 1011.2
20260501223529 47 254 0.0 0.0 0.00 0.00 0.00 71 1011.2
20260501223028 47 252 0.0 0.0 0.00 0.00 0.00 69 1011.2
20260501222528 47 316 0.0 0.0 0.00 0.00 0.00 68 1011.1
20260501222028 47 304 0.0 0.0 0.00 0.00 0.00 67 1011.1
20260501221530 47 300 0.0 0.0 0.00 0.00 0.00 67 1011.1
20260501221027 47 258 0.0 0.0 0.00 0.00 0.00 66 1011.1
20260501220527 47 262 0.0 0.0 0.00 0.00 0.00 66 1011.1
20260501220027 47 302 0.0 0.0 0.00 0.00 0.00 66 1011.0
20260501215527 48 320 0.0 0.0 0.00 0.00 0.00 65 1011.0
20260501215027 48 310 0.0 0.0 0.00 0.00 0.00 64 1011.0
20260501214535 48 272 0.0 1.0 0.00 0.00 0.00 64 1011.0
20260501214025 48 251 0.0 0.0 0.00 0.00 0.00 63 1011.0
20260501213527 48 283 0.0 0.0 0.00 0.00 0.00 63 1011.0
20260501213026 48 300 0.0 0.0 0.00 0.00 0.00 63 1011.0
20260501212525 48 275 0.0 2.0 0.00 0.00 0.00 62 1010.9
20260501212028 48 273 0.0 2.0 0.00 0.00 0.00 61 1010.9
20260501211524 48 289 0.0 4.0 0.00 0.00 0.00 60 1010.9
20260501211027 48 255 0.0 5.0 0.00 0.00 0.00 60 1010.9
20260501210524 49 294 0.0 4.0 0.00 0.00 0.00 59 1010.9
20260501210026 49 277 0.0 4.0 0.00 0.00 0.00 59 1010.9
20260501205524 49 276 0.0 6.0 0.00 0.00 0.00 58 1010.8
20260501205023 49 247 2.0 6.0 0.00 0.00 0.00 57 1010.7
20260501204523 49 317 0.0 1.0 0.00 0.00 0.00 57 1010.7
20260501204022 49 273 0.0 1.0 0.00 0.00 0.00 56 1010.7
20260501203525 49 212 0.0 0.0 0.00 0.00 0.00 55 1010.7
20260501203024 49 238 0.0 0.0 0.00 0.00 0.00 54 1010.7
20260501202522 49 266 0.0 6.0 0.00 0.00 0.00 54 1010.8
20260501202022 50 297 0.0 5.0 0.00 0.00 0.00 54 1010.8
20260501201521 50 266 0.0 0.0 0.00 0.00 0.00 54 1010.8
20260501201020 50 351 0.0 7.0 0.00 0.00 0.00 54 1010.9
20260501200519 50 267 1.0 7.0 0.00 0.00 0.00 52 1010.8
20260501200019 50 354 0.0 4.0 0.00 0.00 0.00 53 1010.9
20260501195520 50 263 0.0 4.0 0.00 0.00 0.00 52 1011.0
20260501195018 50 297 0.0 6.0 0.00 0.00 0.00 51 1010.9
20260501194521 50 266 0.0 6.0 0.00 0.00 0.00 51 1010.9
20260501194017 50 253 0.0 7.0 0.00 0.00 0.00 51 1011.0
20260501193517 50 324 1.0 7.0 0.00 0.00 0.00 50 1011.0
20260501193017 50 233 1.0 5.0 0.00 0.00 0.00 51 1011.0
20260501192516 50 286 0.0 5.0 0.00 0.00 0.00 51 1011.1
20260501192015 50 300 0.0 0.0 0.00 0.00 0.00 51 1011.2
20260501191515 50 266 0.0 0.0 0.00 0.00 0.00 51 1011.1
20260501191016 50 297 0.0 0.0 0.00 0.00 0.00 51 1011.1
20260501190516 50 290 0.0 0.0 0.00 0.00 0.00 50 1011.2
20260501190018 50 310 0.0 0.0 0.00 0.00 0.00 49 1011.2
20260501185513 51 217 0.0 1.0 0.00 0.00 0.00 50 1011.2
20260501185012 51 221 0.0 1.0 0.00 0.00 0.00 48 1011.2
20260501184512 50 247 0.0 0.0 0.00 0.00 0.00 51 1011.3
20260501184012 50 311 0.0 0.0 0.00 0.00 0.00 52 1011.3
20260501183512 49 8 0.0 0.0 0.00 0.00 0.00 52 1011.3
20260501183013 49 261 0.0 0.0 0.00 0.00 0.00 52 1011.4
20260501182512 49 50 0.0 0.0 0.00 0.00 0.00 53 1011.4
20260501182014 49 53 0.0 0.0 0.00 0.00 0.00 51 1011.4
20260501181514 49 262 0.0 0.0 0.00 0.00 0.00 53 1011.4
20260501181010 49 249 0.0 0.0 0.00 0.00 0.00 50 1011.3
20260501180512 49 358 0.0 0.0 0.00 0.00 0.00 51 1011.3
20260501180016 49 295 0.0 5.0 0.00 0.00 0.00 50 1011.4
20260501175510 50 257 0.0 5.0 0.00 0.00 0.00 50 1011.4
20260501175008 50 241 0.0 3.0 0.00 0.00 0.00 50 1011.4
20260501174508 50 57 0.0 3.0 0.00 0.00 0.00 52 1011.4
20260501174008 50 52 0.0 0.0 0.00 0.00 0.00 52 1011.4
20260501173507 49 77 0.0 0.0 0.00 0.00 0.00 51 1011.4
20260501173007 50 262 0.0 0.0 0.00 0.00 0.00 52 1011.5
20260501172507 49 186 0.0 4.0 0.00 0.00 0.00 52 1011.5
20260501172008 49 290 0.0 7.0 0.00 0.00 0.00 53 1011.7
20260501171505 50 245 0.0 4.0 0.00 0.00 0.00 52 1011.8
20260501171008 49 293 0.0 0.0 0.00 0.00 0.00 51 1011.8
20260501170505 49 282 0.0 3.0 0.00 0.00 0.00 51 1011.9
20260501170004 50 262 0.0 7.0 0.00 0.00 0.00 50 1012.0
20260501165504 51 278 1.0 7.0 0.00 0.00 0.00 51 1012.0
20260501165004 51 219 0.0 0.0 0.00 0.00 0.00 52 1012.0
20260501164508 50 248 0.0 1.0 0.00 0.00 0.00 53 1012.0
20260501164005 50 261 0.0 1.0 0.00 0.00 0.00 50 1012.0
20260501163501 50 247 0.0 2.0 0.00 0.00 0.00 54 1012.1